Sigfox identifier Datetime Temperature Humidity SNR
0039546D 2018-10-09 09:20:34 21.3 37 14.1
0039546D 2018-10-09 08:15:03 21.3 37 13.9
0039546D 2018-10-09 07:09:33 21.3 36 14.2
0039546D 2018-10-09 06:04:01 21.3 36 14.2
0039546D 2018-10-09 04:58:30 21.3 36 14.4
0039546D 2018-10-09 01:41:51 21.3 36 18
0039546D 2018-10-09 00:36:19 21.3 36 18
0039546D 2018-10-08 23:30:47 21.3 36 18
0039546D 2018-10-08 22:25:16 21.3 35 18
0039546D 2018-10-08 21:19:45 21.3 35 18
0039546D 2018-10-08 20:14:15 21.3 35 18
0039546D 2018-10-08 19:08:44 21.2 35 18.1
0039546D 2018-10-08 18:03:12 21 35 18.1
0039546D 2018-10-08 16:57:42 21 35 18.2
0039546D 2018-10-08 15:52:13 21 35 18.2
0039546D 2018-10-08 14:46:41 20.9 34 18.3
0039546D 2018-10-08 13:41:08 20.8 34 18.3
0039546D 2018-10-08 12:35:37 20.8 34 18.5
0039546D 2018-10-08 11:30:03 20.8 34 18.5
0039546D 2018-10-08 10:24:32 20.7 34 18.5
0039546D 2018-10-08 09:18:57 20.6 35 18.4
0039546D 2018-10-08 08:13:25 20.6 35 18.6
0039546D 2018-10-08 07:07:54 20.7 35 18.4
0039546D 2018-10-08 06:02:22 20.7 36 18.5
0039546D 2018-10-08 04:56:51 20.8 36 18.6
0039546D 2018-10-08 03:51:24 20.8 36 18.5
0039546D 2018-10-08 02:45:52 20.8 36 18.4
0039546D 2018-10-08 01:40:17 20.8 36 18.4
0039546D 2018-10-08 00:34:45 20.8 37 18.4
0039546D 2018-10-07 23:29:17 20.8 37 18.4
0039546D 2018-10-07 22:23:41 20.9 37 14.9
0039546D 2018-10-07 21:18:12 20.9 37 15
0039546D 2018-10-07 20:12:38 21 37 15.4
0039546D 2018-10-07 19:07:08 20.9 37 15.5
0039546D 2018-10-07 18:01:40 20.9 37 15.6
0039546D 2018-10-07 16:56:08 20.8 37 15.6
0039546D 2018-10-07 15:50:35 20.9 37 15.5
0039546D 2018-10-07 13:39:32 20.9 37 15.9
0039546D 2018-10-07 12:33:54 20.9 38 15.8
0039546D 2018-10-07 11:28:22 21 38 15.8
0039546D 2018-10-07 10:22:51 21 38 15.9
0039546D 2018-10-07 09:17:18 21 38 16
0039546D 2018-10-07 08:11:45 21 38 16.1
0039546D 2018-10-07 07:06:12 21 38 16.2
0039546D 2018-10-07 06:00:38 21 38 16.1
0039546D 2018-10-07 04:55:07 21 38 16.3
0039546D 2018-10-07 03:49:36 21 38 16.3
0039546D 2018-10-07 02:44:07 21 38 16.3
0039546D 2018-10-07 01:38:38 21.1 38 16.3
0039546D 2018-10-07 00:33:07 21.1 38 16.2
0039546D 2018-10-06 23:27:35 21.2 38 16.1
0039546D 2018-10-06 22:22:04 21.3 38 16.2
0039546D 2018-10-06 21:16:35 21.2 38 16.1
0039546D 2018-10-06 20:10:57 21.2 38 16.1
0039546D 2018-10-06 19:05:26 21.3 38 16.1
0039546D 2018-10-06 17:59:55 21.3 38 16.5
0039546D 2018-10-06 16:54:25 21.3 38 16.8
0039546D 2018-10-06 15:48:54 21.3 38 16.5
0039546D 2018-10-06 14:43:24 21.3 39 16.4
0039546D 2018-10-06 13:37:55 21.3 38 16.3
0039546D 2018-10-06 12:32:19 21.3 39 16.4
0039546D 2018-10-06 11:26:49 21.3 39 16.4
0039546D 2018-10-06 10:21:16 21.3 39 16.1
0039546D 2018-10-06 09:15:44 21.3 39 16.5
0039546D 2018-10-06 08:10:11 21.3 39 16.8
0039546D 2018-10-06 07:04:40 21.3 39 16.8
0039546D 2018-10-06 05:59:11 21.4 39 16.9
0039546D 2018-10-06 03:48:05 21.4 40 16.5
0039546D 2018-10-06 02:42:35 21.5 40 16.4
0039546D 2018-10-06 01:37:02 21.5 40 16.7
0039546D 2018-10-06 00:31:33 21.5 40 16.7
0039546D 2018-10-05 23:26:00 21.6 40 16.8
0039546D 2018-10-05 22:20:28 21.7 40 16.7
0039546D 2018-10-05 21:14:57 21.7 41 16.5
0039546D 2018-10-05 20:09:27 21.7 41 16.5
0039546D 2018-10-05 19:03:56 21.7 41 16.5
0039546D 2018-10-05 17:58:26 21.7 41 16.6
0039546D 2018-10-05 16:52:52 21.7 41 16.6
0039546D 2018-10-05 15:47:19 21.7 40 16.7
0039546D 2018-10-05 14:41:45 21.5 40 16.8
0039546D 2018-10-05 13:36:15 21.5 39 16.4
0039546D 2018-10-05 12:30:47 21.5 39 15.7
0039546D 2018-10-05 11:25:16 21.3 37 15.8
0039546D 2018-10-05 10:19:45 21.1 34 15.8
0039546D 2018-10-05 09:14:15 21 33 15.8
0039546D 2018-10-05 08:08:42 20.8 31 15.6
0039546D 2018-10-05 07:03:11 20.9 30 15.6
0039546D 2018-10-05 05:57:40 20.8 29 15.7
0039546D 2018-10-05 04:52:07 20.9 29 15.2
0039546D 2018-10-05 03:46:37 21 29 14.9
0039546D 2018-10-05 02:41:07 21 29 14.7
0039546D 2018-10-05 01:35:36 21 30 18.1
0039546D 2018-10-05 00:30:05 21.1 30 18.1
0039546D 2018-10-04 23:24:33 21.1 30 18.1
0039546D 2018-10-04 22:19:07 21.2 30 18
0039546D 2018-10-04 21:13:31 21.2 29 18
0039546D 2018-10-04 20:08:00 21.2 29 17.8
0039546D 2018-10-04 19:02:29 21.2 29 17.9
0039546D 2018-10-04 17:57:00 21.1 29 18.1
0039546D 2018-10-04 14:40:25 20.8 30 18.3
0039546D 2018-10-04 12:29:17 20.7 31 18.6
0039546D 2018-10-04 09:12:26 20.5 34 18.7
0039546D 2018-10-04 08:06:50 20.4 35 19.1
0039546D 2018-10-04 07:01:14 20.6 36 19.3
0039546D 2018-10-04 05:55:38 20.5 37 19.4
0039546D 2018-10-04 04:49:58 20.6 37 19.6
0039546D 2018-10-04 03:44:24 20.6 38 19.7
0039546D 2018-10-04 02:38:47 20.6 38 19.9
0039546D 2018-10-04 01:33:12 20.6 39 20
0039546D 2018-10-04 00:27:38 20.6 39 20
0039546D 2018-10-03 23:22:03 20.6 40 20
0039546D 2018-10-03 22:16:29 20.7 40 19.9
0039546D 2018-10-03 21:10:52 20.8 40 20
0039546D 2018-10-03 20:05:15 20.8 40 20.1
0039546D 2018-10-03 18:59:38 20.8 41 20
0039546D 2018-10-03 17:54:01 20.8 41 20
0039546D 2018-10-03 16:48:25 20.8 42 18.3
0039546D 2018-10-03 13:31:27 20.7 43 18.2
0039546D 2018-10-03 12:25:53 20.6 40 18.3
0039546D 2018-10-03 11:20:16 20.8 42 18.7
0039546D 2018-10-03 10:14:37 20.6 41 18.5
0039546D 2018-10-03 09:08:57 20.4 40 18.7
0039546D 2018-10-03 08:03:19 20.4 38 18.9
0039546D 2018-10-03 06:57:44 20.4 39 18.9
0039546D 2018-10-03 05:51:58 20.4 39 18.9
0039546D 2018-10-03 04:46:16 20.6 39 18.8
0039546D 2018-10-03 03:40:35 20.5 40 18.9
0039546D 2018-10-03 02:34:56 20.6 40 18.6
0039546D 2018-10-03 01:29:18 20.6 40 18.3
0039546D 2018-10-03 00:23:38 20.6 40 18.2
0039546D 2018-10-02 23:18:00 20.6 40 18
0039546D 2018-10-02 22:12:18 20.6 40 18.1
0039546D 2018-10-02 21:06:42 20.7 40 17.8
0039546D 2018-10-02 20:01:06 20.7 39 17.8
0039546D 2018-10-02 18:55:31 20.7 39 17.8
0039546D 2018-10-02 17:49:54 20.8 39 18
0039546D 2018-10-02 16:44:23 20.9 41 18.2
0039546D 2018-10-02 15:38:43 20.8 39 18.3
0039546D 2018-10-02 14:33:08 20.8 38 18.2
0039546D 2018-10-02 13:27:33 20.7 39 18.4
0039546D 2018-10-02 12:22:01 20.8 41 18.7
0039546D 2018-10-02 11:16:24 20.6 43 18.4
0039546D 2018-10-02 10:10:53 20.6 43 18.6
0039546D 2018-10-02 09:05:15 20.5 43 18.8
0039546D 2018-10-02 07:59:41 20.4 41 18.3
0039546D 2018-10-02 06:54:06 20.4 42 18.6
0039546D 2018-10-02 05:48:33 20.4 42 18.4
0039546D 2018-10-02 04:42:55 20.4 43 18
0039546D 2018-10-02 03:37:23 20.6 43 17.8
0039546D 2018-10-02 02:31:49 20.6 43 17.7
0039546D 2018-10-02 01:26:15 20.6 43 17.5
0039546D 2018-10-02 00:20:40 20.6 43 16.4
0039546D 2018-10-01 23:15:06 20.6 43 16.4
0039546D 2018-10-01 22:09:32 20.6 43 17.3
0039546D 2018-10-01 21:03:54 20.6 43 17
0039546D 2018-10-01 18:52:37 20.4 43 18.1
0039546D 2018-10-01 17:46:58 20 44 7
0039546D 2018-10-01 16:41:20 16.9 65 0